User: anonymous   Login
Location: Unspecified
(0.0000°N, 0.0000°E)
Time: 18:43:28
(UTC+00:00)
Language:

OBJECT PD - Orbit

View from above orbital plane
View from above orbital plane
View from above satellite
View from above satellite

Ground track
Ground track

The orbit data is extracted from the following two-line orbital elements,

1 43589U 98067PD  18350.81072399 +.00006493 +00000-0 +94244-4 0  9994
2 43589 051.6374 186.7426 0006440 177.9576 182.1443 15.57185935020056
Epoch (UTC): 16 December 2018 19:27:26
Eccentricity: 0.0006440
inclination: 51.6374°
perigee height: 391 km
apogee height: 400 km
right ascension of ascending node: 186.7426°
argument of perigee: 177.9576°
revolutions per day: 15.57185935
mean anomaly at epoch: 182.1443°
orbit number at epoch: 2005

The dashed part of the orbit path shows where the satellite is in the earth's shadow,  

DLR